Location: Tamazert
(32.6352°N, 5.2072°W)
Time: 07:46:16
(UTC+00:00)

Tiros 1 despin weight - Pass Details

Date: 14 October 2022
Orbit: 590 x 637 km, 48.2° (Epoch: 28 November)

Event Time Altitude Azimuth Distance (km) Brightness Sun altitude
Rises 19:41:41 0° 290° (WNW) 2,873 ? -24.4°
Reaches altitude 10° 19:44:41 10° 270° (W) 1,975 ? -25.1°
Maximum altitude 19:47:32 16° 231° (SW) 1,600 ? -25.7°
Drops below altitude 10° 19:50:23 10° 192° (SSW) 1,987 ? -26.3°
Enters shadow 19:50:35 - 190° (S) 2,036 ? -26.3°
Sets 19:53:27 0° 171° (S) 2,899 - -26.9°
